Find Starlink 11451

NORAD ID: 62561 Int'l Des: 2025-006 Owner: SPXS Country: US Constellation: starlink operational
LEOCIRCULAR

Live Position

Loading 3D Globe...

About Starlink 11451

Description loading...

Upcoming Passes

Passes for default location (London). Set your location on the main map for personalized predictions.

Altitude History

Loading altitude history...

Two-Line Element Set

1 62561U 25006H 26103.78046603 .00115111 00000-0 88911-3 0 9999
2 62561 42.9994 288.1643 0001424 239.0023 121.0705 15.70815930 72128
Epoch: Apr 13, 2026 • Age: 14 hours

Current Status

Altitude 355.8 km
Velocity 7.70 km/s
Sub-Earth Point 9.65°N, 35.26°W
Launch Date Jan 10, 2025
Age 1.2 years
Type internet

Technical Details

Classification Payload
Mass 960.00 kg
Dry Mass 910.00 kg
Total Mass 960.00 kg
Length 0.30 m
Diameter 4.10 m
Span 29.00 m
Shape Box + pan
Manufacturer SPXS
Bus Type Starlink V2MD
Phase Status In Orbit
Owner/State SPXS/US

Most Searched